Regional Weather Roundup
Issued by NWS

Home | Current Version | Previous Version | Text Only | Print | Product List | Glossary Off
Versions: 1 2 3 4 5 6 7 8 9 10 11 12 13 14 15 16 17 18 19 20 21 22 23 24 25 26 27 28 29 30 31 32 33 34 35 36 37 38 39 40 41 42 43 44 45 46 47 48 49 50

000
ASUS43 KIND 302159
RWRIN

WEATHER ROUNDUP FOR INDIANA
NATIONAL WEATHER SERVICE INDIANAPOLIS IN
600 PM EDT TUE AUG 30 2016

NOTE: "FAIR" INDICATES FEW OR NO CLOUDS BELOW 12,000 FEET WITH NO
SIGNIFICANT WEATHER AND/OR OBSTRUCTIONS TO VISIBILITY.

* - STATION DOES NOT REPORT WEATHER SUCH AS PRECIPITATION OR FOG.

+ - STATION NOT QUALITY CONTROLLED BY THE NATIONAL WEATHER SERVICE.
    USE DATA WITH CAUTION...ESPECIALLY DEWPOINT AND RELATIVE
    HUMIDITY OBSERVATIONS.

INZ001>003-010>013-019-020-302300-
NORTHWEST INDIANA

CITY           SKY/WX    TMP DP  RH WIND       PRES   REMARKS
GARY /AIRPORT/ PTSUNNY   86  68  54 W8        30.05F
KNOX *+        MOSUNNY   81  46  30 W7        30.05F
MONTICELLO +   MOSUNNY   82  68  61 NW7       30.05R

$$

LMZ046-743>745-302300-
SOUTHERN LAKE MICHIGAN

STATION/POSITION TIME  TEMP    WIND        PRES    WAVE
                       AIR SEA DIR/SP/G            HT
                 (UTC) (F)     (DEG/KT/KT) (MB)    (FT)
BURNS HARBOR     2109                      1018.3F
MICHIGAN CITY    2100   78     300/  5/  6   N/A
5NW MICH CITY    2100   77 73  350/  2/  4   N/A     0

$$

INZ004-005-014>016-021>024-302300-
NORTH CENTRAL INDIANA

CITY           SKY/WX    TMP DP  RH WIND       PRES   REMARKS
ELKHART        PTSUNNY  N/A N/A N/A W9        30.06S
GOSHEN         PTSUNNY   82  73  74 VRB5      30.05F
PERU/GRISSOM   TSTM      81  73  78 NW16G24   30.01F
SOUTH BEND     CLOUDY    81  74  79 NW9       30.05F

$$

INZ006>009-017-018-025>027-302300-
NORTHEAST INDIANA

CITY           SKY/WX    TMP DP  RH WIND       PRES   REMARKS
ANGOLA *+      PTSUNNY   73  66  78 CALM      30.08S
FORT WAYNE     TSTM      71  69  93 CALM      30.07F

$$

INZ028-029-035-036-043>045-051>053-302300-
WEST CENTRAL INDIANA

CITY           SKY/WX    TMP DP  RH WIND       PRES   REMARKS
CRAWFORDSVL +  DRIZZLE   71  71  99 W12G26    30.07R
LAFAYETTE      LGT RAIN  81  74  79 NW10      30.03F
TERRE HAUTE    PTSUNNY   89  70  53 SW7       30.05S

$$

INZ030>032-037>040-046>048-054>057-064-065-302300-
CENTRAL INDIANA

CITY           SKY/WX    TMP DP  RH WIND       PRES   REMARKS
COLUMBUS       SUNNY     86  72  62 CALM      30.05F
INDIANAPOLIS   PTSUNNY   87  70  56 SW12      30.04F
-EAGLE CREEK   CLOUDY    86  69  56 SW6       30.04S
KOKOMO *+      PTSUNNY   81  75  83 S7        30.04S
MT COMFORT *+  MOSUNNY   82  72  69 S5        30.05S
SHELBYVILLE    PTSUNNY   88  69  53 S7        30.04F

$$

INZ033-034-041-042-049-050-058-059-302300-
EAST CENTRAL INDIANA

CITY           SKY/WX    TMP DP  RH WIND       PRES   REMARKS
MUNCIE         PTSUNNY   87  70  56 S8        30.04F

$$

INZ060-061-067>069-081>083-085>088-302300-
SOUTHWEST INDIANA

CITY           SKY/WX    TMP DP  RH WIND       PRES   REMARKS
EVANSVILLE     SUNNY     93  68  43 CALM      30.03F HX  97
HUNTINGBURG *+ MOSUNNY   90  70  51 CALM      30.04F HX  95

$$

INZ062-063-066-070>080-084-089>092-302300-
SOUTH CENTRAL AND SOUTHEAST INDIANA

CITY           SKY/WX    TMP DP  RH WIND       PRES   REMARKS
BLOOMINGTON    MOSUNNY   88  69  53 S7        30.05F
MADISON *+     SUNNY     88  63  42 CALM      30.07F

$$





USA.gov is the U.S. government's official web portal to all federal, state and local government web resources and services.